Location: Oriwa
(40.7500°S, 175.3333°E)
Time: 09:41:18
(UTC+00:00)

NOSS 3-1 (A) - Pass Details

Date: 03 February 2023
Orbit: 689 x 1522 km, 63.4° (Epoch: 16 March)

Event Time Altitude Azimuth Distance (km) Brightness Sun altitude
Rises 12:31:51 0° 214° (SSW) 3,863 7.4 -32.7°
Reaches altitude 10° 12:34:46 10° 210° (SSW) 2,771 6.5 -32.7°
Enters shadow 12:40:10 56° 172° (S) 1,032 3.8 -32.7°
